Tracking 34352 objects as of 8-Jun-2026
HD Live streaming from Space Station
objects crossing your sky now

BRAZILSAT 1

Track BRAZILSAT 1 now!
BRAZILSAT 1 is classified as:


NORAD ID: 15561
Int'l Code: 1985-015B
Perigee: 35,979.0 km
Apogee: 36,014.7 km
Inclination: 14.1 °
Period: 1,446.5 minutes
Semi major axis: 42367 km
RCS: 2.7147 m2 (large)
Launch date: February 8, 1985
Source: Brazil (BRAZ)
Launch site: FRENCH GUIANA (FRGUI)
Your satellite tracking list
Your tracking list is empty




NASA's NSSDC Master Catalog

Two Line Element Set (TLE):
1 15561U 85015B   26158.74057941  .00000003  00000-0  00000+0 0  9998
2 15561  14.1177 344.9712 0004208 349.1906  23.4500  0.99551677 46257
Source of the keplerian elements: AFSPC